Year,Month,Day,Hour,Minute,Value (Times are PST for temperature in C)
2016,08,14,00,00,18.20
2016,08,14,00,01,18.20
2016,08,14,00,02,18.20
2016,08,14,00,03,18.20
2016,08,14,00,04,18.20
2016,08,14,00,05,18.20
2016,08,14,00,06,18.10
2016,08,14,00,07,18.10
2016,08,14,00,08,18.10
2016,08,14,00,09,18.00
2016,08,14,00,10,18.00
2016,08,14,00,11,17.90
2016,08,14,00,12,17.90
2016,08,14,00,13,17.90
2016,08,14,00,14,17.80
2016,08,14,00,15,17.80
2016,08,14,00,16,17.70
2016,08,14,00,17,17.70
2016,08,14,00,18,17.70
2016,08,14,00,19,17.70
2016,08,14,00,20,17.60
2016,08,14,00,21,17.60
2016,08,14,00,22,17.60
2016,08,14,00,23,17.60
2016,08,14,00,24,17.50
2016,08,14,00,25,17.50
2016,08,14,00,26,17.50
2016,08,14,00,27,17.40
2016,08,14,00,28,17.40
2016,08,14,00,29,17.40
2016,08,14,00,30,17.30
2016,08,14,00,31,17.30
2016,08,14,00,32,17.30
2016,08,14,00,33,17.30
2016,08,14,00,34,17.30
2016,08,14,00,35,17.30
2016,08,14,00,36,17.30
2016,08,14,00,37,17.20
2016,08,14,00,38,17.20
2016,08,14,00,39,17.20
2016,08,14,00,40,17.20
2016,08,14,00,41,17.20
2016,08,14,00,42,17.20
2016,08,14,00,43,17.10
2016,08,14,00,44,17.10
2016,08,14,00,45,17.10
2016,08,14,00,46,17.10
2016,08,14,00,47,17.10
2016,08,14,00,48,17.10
2016,08,14,00,49,17.00
2016,08,14,00,50,17.00
2016,08,14,00,51,17.00
2016,08,14,00,52,17.00
2016,08,14,00,53,16.90
2016,08,14,00,54,16.90
2016,08,14,00,55,16.90
2016,08,14,00,56,16.90
2016,08,14,00,57,16.90
2016,08,14,00,58,16.90
2016,08,14,00,59,16.90
2016,08,14,01,00,16.90
2016,08,14,01,01,16.90
2016,08,14,01,02,16.80
2016,08,14,01,03,16.80
2016,08,14,01,04,16.80
2016,08,14,01,05,16.80
2016,08,14,01,06,16.80
2016,08,14,01,07,16.80
2016,08,14,01,08,16.80
2016,08,14,01,09,16.80
2016,08,14,01,10,16.70
2016,08,14,01,11,16.70
2016,08,14,01,12,16.70
2016,08,14,01,13,16.70
2016,08,14,01,14,16.70
2016,08,14,01,15,16.70
2016,08,14,01,16,16.70
2016,08,14,01,17,16.70
2016,08,14,01,18,16.60
2016,08,14,01,19,16.60
2016,08,14,01,20,16.60
2016,08,14,01,21,16.60
2016,08,14,01,22,16.60
2016,08,14,01,23,16.70
2016,08,14,01,24,16.70
2016,08,14,01,25,16.70
2016,08,14,01,26,16.60
2016,08,14,01,27,16.60
2016,08,14,01,28,16.60
2016,08,14,01,29,16.60
2016,08,14,01,30,16.60
2016,08,14,01,31,16.50
2016,08,14,01,32,16.50
2016,08,14,01,33,16.50
2016,08,14,01,34,16.40
2016,08,14,01,35,16.40
2016,08,14,01,36,16.40
2016,08,14,01,37,16.40
2016,08,14,01,38,16.40
2016,08,14,01,39,16.40
2016,08,14,01,40,16.40
2016,08,14,01,41,16.40
2016,08,14,01,42,16.40
2016,08,14,01,43,16.40
2016,08,14,01,44,16.40
2016,08,14,01,45,16.40
2016,08,14,01,46,16.40
2016,08,14,01,47,16.50
2016,08,14,01,48,16.50
2016,08,14,01,49,16.40
2016,08,14,01,50,16.40
2016,08,14,01,51,16.40
2016,08,14,01,52,16.40
2016,08,14,01,53,16.30
2016,08,14,01,54,16.30
2016,08,14,01,55,16.30
2016,08,14,01,56,16.30
2016,08,14,01,57,16.30
2016,08,14,01,58,16.20
2016,08,14,01,59,16.20
2016,08,14,02,00,16.20
2016,08,14,02,01,16.20
2016,08,14,02,02,16.20
2016,08,14,02,03,16.10
2016,08,14,02,04,16.10
2016,08,14,02,05,16.10
2016,08,14,02,06,16.10
2016,08,14,02,07,16.10
2016,08,14,02,08,16.10
2016,08,14,02,09,16.10
2016,08,14,02,10,16.10
2016,08,14,02,11,16.10
2016,08,14,02,12,16.10
2016,08,14,02,13,16.10
2016,08,14,02,14,16.10
2016,08,14,02,15,16.10
2016,08,14,02,16,16.10
2016,08,14,02,17,16.10
2016,08,14,02,18,16.10
2016,08,14,02,19,16.10
2016,08,14,02,20,16.10
2016,08,14,02,21,16.00
2016,08,14,02,22,16.00
2016,08,14,02,23,16.00
2016,08,14,02,24,15.90
2016,08,14,02,25,15.90
2016,08,14,02,26,15.90
2016,08,14,02,27,15.90
2016,08,14,02,28,15.90
2016,08,14,02,29,15.90
2016,08,14,02,30,15.90
2016,08,14,02,31,15.90
2016,08,14,02,32,15.90
2016,08,14,02,33,15.90
2016,08,14,02,34,15.80
2016,08,14,02,35,15.80
2016,08,14,02,36,15.80
2016,08,14,02,37,15.80
2016,08,14,02,38,15.80
2016,08,14,02,39,15.80
2016,08,14,02,40,15.90
2016,08,14,02,41,15.90
2016,08,14,02,42,15.90
2016,08,14,02,43,15.90
2016,08,14,02,44,15.90
2016,08,14,02,45,15.90
2016,08,14,02,46,15.90
2016,08,14,02,47,15.80
2016,08,14,02,48,15.80
2016,08,14,02,49,15.80
2016,08,14,02,50,15.80
2016,08,14,02,51,15.80
2016,08,14,02,52,15.80
2016,08,14,02,53,15.80
2016,08,14,02,54,15.80
2016,08,14,02,55,15.80
2016,08,14,02,56,15.80
2016,08,14,02,57,15.80
2016,08,14,02,58,15.80
2016,08,14,02,59,15.70
2016,08,14,03,00,15.70
2016,08,14,03,01,15.70
2016,08,14,03,02,15.60
2016,08,14,03,03,15.60
2016,08,14,03,04,15.60
2016,08,14,03,05,15.50
2016,08,14,03,06,15.50
2016,08,14,03,07,15.50
2016,08,14,03,08,15.50
2016,08,14,03,09,15.50
2016,08,14,03,10,15.50
2016,08,14,03,11,15.50
2016,08,14,03,12,15.40
2016,08,14,03,13,15.40
2016,08,14,03,14,15.40
2016,08,14,03,15,15.40
2016,08,14,03,16,15.30
2016,08,14,03,17,15.30
2016,08,14,03,18,15.30
2016,08,14,03,19,15.30
2016,08,14,03,20,15.30
2016,08,14,03,21,15.20
2016,08,14,03,22,15.20
2016,08,14,03,23,15.20
2016,08,14,03,24,15.20
2016,08,14,03,25,15.30
2016,08,14,03,26,15.30
2016,08,14,03,27,15.30
2016,08,14,03,28,15.30
2016,08,14,03,29,15.30
2016,08,14,03,30,15.30
2016,08,14,03,31,15.30
2016,08,14,03,32,15.30
2016,08,14,03,33,15.30
2016,08,14,03,34,15.30
2016,08,14,03,35,15.30
2016,08,14,03,36,15.30
2016,08,14,03,37,15.30
2016,08,14,03,38,15.30
2016,08,14,03,39,15.30
2016,08,14,03,40,15.30
2016,08,14,03,41,15.20
2016,08,14,03,42,15.20
2016,08,14,03,43,15.20
2016,08,14,03,44,15.20
2016,08,14,03,45,15.20
2016,08,14,03,46,15.20
2016,08,14,03,47,15.20
2016,08,14,03,48,15.20
2016,08,14,03,49,15.20
2016,08,14,03,50,15.20
2016,08,14,03,51,15.20
2016,08,14,03,52,15.20
2016,08,14,03,53,15.20
2016,08,14,03,54,15.10
2016,08,14,03,55,15.10
2016,08,14,03,56,15.10
2016,08,14,03,57,15.10
2016,08,14,03,58,15.00
2016,08,14,03,59,15.00
2016,08,14,04,00,15.00
2016,08,14,04,01,15.00
2016,08,14,04,02,15.00
2016,08,14,04,03,15.00
2016,08,14,04,04,15.00
2016,08,14,04,05,15.00
2016,08,14,04,06,15.00
2016,08,14,04,07,15.00
2016,08,14,04,08,15.00
2016,08,14,04,09,14.90
2016,08,14,04,10,14.90
2016,08,14,04,11,14.90
2016,08,14,04,12,14.90
2016,08,14,04,13,14.90
2016,08,14,04,14,14.90
2016,08,14,04,15,14.90
2016,08,14,04,16,14.90
2016,08,14,04,17,14.90
2016,08,14,04,18,14.90
2016,08,14,04,19,14.90
2016,08,14,04,20,14.90
2016,08,14,04,21,14.90
2016,08,14,04,22,14.80
2016,08,14,04,23,14.80
2016,08,14,04,24,14.80
2016,08,14,04,25,14.80
2016,08,14,04,26,14.80
2016,08,14,04,27,14.80
2016,08,14,04,28,14.80
2016,08,14,04,29,14.70
2016,08,14,04,30,14.70
2016,08,14,04,31,14.70
2016,08,14,04,32,14.70
2016,08,14,04,33,14.70
2016,08,14,04,34,14.70
2016,08,14,04,35,14.70
2016,08,14,04,36,14.70
2016,08,14,04,37,14.70
2016,08,14,04,38,14.70
2016,08,14,04,39,14.70
2016,08,14,04,40,14.60
2016,08,14,04,41,14.60
2016,08,14,04,42,14.60
2016,08,14,04,43,14.60
2016,08,14,04,44,14.60
2016,08,14,04,45,14.60
2016,08,14,04,46,14.60
2016,08,14,04,47,14.70
2016,08,14,04,48,14.70
2016,08,14,04,49,14.70
2016,08,14,04,50,14.70
2016,08,14,04,51,14.70
2016,08,14,04,52,14.60
2016,08,14,04,53,14.60
2016,08,14,04,54,14.50
2016,08,14,04,55,14.50
2016,08,14,04,56,14.50
2016,08,14,04,57,14.40
2016,08,14,04,58,14.40
2016,08,14,04,59,14.40
2016,08,14,05,00,14.40
2016,08,14,05,01,14.40
2016,08,14,05,02,14.40
2016,08,14,05,03,14.40
2016,08,14,05,04,14.40
2016,08,14,05,05,14.40
2016,08,14,05,06,14.40
2016,08,14,05,07,14.40
2016,08,14,05,08,14.40
2016,08,14,05,09,14.40
2016,08,14,05,10,14.40
2016,08,14,05,11,14.30
2016,08,14,05,12,14.30
2016,08,14,05,13,14.30
2016,08,14,05,14,14.30
2016,08,14,05,15,14.30
2016,08,14,05,16,14.30
2016,08,14,05,17,14.20
2016,08,14,05,18,14.20
2016,08,14,05,19,14.20
2016,08,14,05,20,14.20
2016,08,14,05,21,14.20
2016,08,14,05,22,14.30
2016,08,14,05,23,14.30
2016,08,14,05,24,14.30
2016,08,14,05,25,14.30
2016,08,14,05,26,14.30
2016,08,14,05,27,14.30
2016,08,14,05,28,14.30
2016,08,14,05,29,14.20
2016,08,14,05,30,14.20
2016,08,14,05,31,14.20
2016,08,14,05,32,14.20
2016,08,14,05,33,14.20
2016,08,14,05,34,14.20
2016,08,14,05,35,14.20
2016,08,14,05,36,14.20
2016,08,14,05,37,14.20
2016,08,14,05,38,14.20
2016,08,14,05,39,14.20
2016,08,14,05,40,14.20
2016,08,14,05,41,14.20
2016,08,14,05,42,14.20
2016,08,14,05,43,14.20
2016,08,14,05,44,14.20
2016,08,14,05,45,14.20
2016,08,14,05,46,14.20
2016,08,14,05,47,14.20
2016,08,14,05,48,14.20
2016,08,14,05,49,14.20
2016,08,14,05,50,14.20
2016,08,14,05,51,14.20
2016,08,14,05,52,14.20
2016,08,14,05,53,14.20
2016,08,14,05,54,14.20
2016,08,14,05,55,14.20
2016,08,14,05,56,14.20
2016,08,14,05,57,14.20
2016,08,14,05,58,14.20
2016,08,14,05,59,14.10
2016,08,14,06,00,14.10
2016,08,14,06,01,14.10
2016,08,14,06,02,14.10
2016,08,14,06,03,14.10
2016,08,14,06,04,14.10
2016,08,14,06,05,14.10
2016,08,14,06,06,14.10
2016,08,14,06,07,14.10
2016,08,14,06,08,14.10
2016,08,14,06,09,14.00
2016,08,14,06,10,14.00
2016,08,14,06,11,14.00
2016,08,14,06,12,13.90
2016,08,14,06,13,13.90
2016,08,14,06,14,13.90
2016,08,14,06,15,13.90
2016,08,14,06,16,13.80
2016,08,14,06,17,13.80
2016,08,14,06,18,13.80
2016,08,14,06,19,13.80
2016,08,14,06,20,13.80
2016,08,14,06,21,13.80
2016,08,14,06,22,13.80
2016,08,14,06,23,13.90
2016,08,14,06,24,13.90
2016,08,14,06,25,13.90
2016,08,14,06,26,13.80
2016,08,14,06,27,13.80
2016,08,14,06,28,13.80
2016,08,14,06,29,13.80
2016,08,14,06,30,13.80
2016,08,14,06,31,13.80
2016,08,14,06,32,13.80
2016,08,14,06,33,13.80
2016,08,14,06,34,13.80
2016,08,14,06,35,13.80
2016,08,14,06,36,13.80
2016,08,14,06,37,13.80
2016,08,14,06,38,13.80
2016,08,14,06,39,13.90
2016,08,14,06,40,13.90
2016,08,14,06,41,13.90
2016,08,14,06,42,13.90
2016,08,14,06,43,13.90
2016,08,14,06,44,14.00
2016,08,14,06,45,14.00
2016,08,14,06,46,14.10
2016,08,14,06,47,14.10
2016,08,14,06,48,14.10
2016,08,14,06,49,14.10
2016,08,14,06,50,14.20
2016,08,14,06,51,14.20
2016,08,14,06,52,14.20
2016,08,14,06,53,14.20
2016,08,14,06,54,14.20
2016,08,14,06,55,14.30
2016,08,14,06,56,14.30
2016,08,14,06,57,14.30
2016,08,14,06,58,14.40
2016,08,14,06,59,14.40
2016,08,14,07,00,14.40
2016,08,14,07,01,14.50
2016,08,14,07,02,14.50
2016,08,14,07,03,14.60
2016,08,14,07,04,14.60
2016,08,14,07,05,14.60
2016,08,14,07,06,14.70
2016,08,14,07,07,14.70
2016,08,14,07,08,14.70
2016,08,14,07,09,14.80
2016,08,14,07,10,14.90
2016,08,14,07,11,14.90
2016,08,14,07,12,15.00
2016,08,14,07,13,15.10
2016,08,14,07,14,15.10
2016,08,14,07,15,15.20
2016,08,14,07,16,15.20
2016,08,14,07,17,15.30
2016,08,14,07,18,15.30
2016,08,14,07,19,15.40
2016,08,14,07,20,15.50
2016,08,14,07,21,15.50
2016,08,14,07,22,15.60
2016,08,14,07,23,15.60
2016,08,14,07,24,15.70
2016,08,14,07,25,15.70
2016,08,14,07,26,15.70
2016,08,14,07,27,15.70
2016,08,14,07,28,15.80
2016,08,14,07,29,15.80
2016,08,14,07,30,15.90
2016,08,14,07,31,16.00
2016,08,14,07,32,16.00
2016,08,14,07,33,16.10
2016,08,14,07,34,16.10
2016,08,14,07,35,16.20
2016,08,14,07,36,16.20
2016,08,14,07,37,16.30
2016,08,14,07,38,16.40
2016,08,14,07,39,16.40
2016,08,14,07,40,16.50
2016,08,14,07,41,16.50
2016,08,14,07,42,16.60
2016,08,14,07,43,16.70
2016,08,14,07,44,16.80
2016,08,14,07,45,16.90
2016,08,14,07,46,17.00
2016,08,14,07,47,17.00
2016,08,14,07,48,17.10
2016,08,14,07,49,17.20
2016,08,14,07,50,17.20
2016,08,14,07,51,17.30
2016,08,14,07,52,17.30
2016,08,14,07,53,17.30
2016,08,14,07,54,17.30
2016,08,14,07,55,17.30
2016,08,14,07,56,17.20
2016,08,14,07,57,17.20
2016,08,14,07,58,17.20
2016,08,14,07,59,17.20
2016,08,14,08,00,17.20
2016,08,14,08,01,17.20
2016,08,14,08,02,17.20
2016,08,14,08,03,17.20
2016,08,14,08,04,17.20
2016,08,14,08,05,17.20
2016,08,14,08,06,17.30
2016,08,14,08,07,17.40
2016,08,14,08,08,17.40
2016,08,14,08,09,17.50
2016,08,14,08,10,17.60
2016,08,14,08,11,17.60
2016,08,14,08,12,17.60
2016,08,14,08,13,17.60
2016,08,14,08,14,17.60
2016,08,14,08,15,17.70
2016,08,14,08,16,17.70
2016,08,14,08,17,17.70
2016,08,14,08,18,17.80
2016,08,14,08,19,17.80
2016,08,14,08,20,17.80
2016,08,14,08,21,17.90
2016,08,14,08,22,17.90
2016,08,14,08,23,17.90
2016,08,14,08,24,18.00
2016,08,14,08,25,18.00
2016,08,14,08,26,18.00
2016,08,14,08,27,17.90
2016,08,14,08,28,18.00
2016,08,14,08,29,18.00
2016,08,14,08,30,18.00
2016,08,14,08,31,18.10
2016,08,14,08,32,18.20
2016,08,14,08,33,18.30
2016,08,14,08,34,18.30
2016,08,14,08,35,18.40
2016,08,14,08,36,18.50
2016,08,14,08,37,18.50
2016,08,14,08,38,18.60
2016,08,14,08,39,18.60
2016,08,14,08,40,18.60
2016,08,14,08,41,18.60
2016,08,14,08,42,18.70
2016,08,14,08,43,18.70
2016,08,14,08,44,18.80
2016,08,14,08,45,18.80
2016,08,14,08,46,18.90
2016,08,14,08,47,18.90
2016,08,14,08,48,19.00
2016,08,14,08,49,19.00
2016,08,14,08,50,19.00
2016,08,14,08,51,19.10
2016,08,14,08,52,19.10
2016,08,14,08,53,19.20
2016,08,14,08,54,19.20
2016,08,14,08,55,19.30
2016,08,14,08,56,19.40
2016,08,14,08,57,19.50
2016,08,14,08,58,19.60
2016,08,14,08,59,19.60
2016,08,14,09,00,19.70
2016,08,14,09,01,19.70
2016,08,14,09,02,19.70
2016,08,14,09,03,19.70
2016,08,14,09,04,19.70
2016,08,14,09,05,19.70
2016,08,14,09,06,19.80
2016,08,14,09,07,19.80
2016,08,14,09,08,19.80
2016,08,14,09,09,19.80
2016,08,14,09,10,19.80
2016,08,14,09,11,19.80
2016,08,14,09,12,19.90
2016,08,14,09,13,19.90
2016,08,14,09,14,20.00
2016,08,14,09,15,20.00
2016,08,14,09,16,20.10
2016,08,14,09,17,20.10
2016,08,14,09,18,20.10
2016,08,14,09,19,20.20
2016,08,14,09,20,20.30
2016,08,14,09,21,20.30
2016,08,14,09,22,20.50
2016,08,14,09,23,20.60
2016,08,14,09,24,20.70
2016,08,14,09,25,20.80
2016,08,14,09,26,20.90
2016,08,14,09,27,20.90
2016,08,14,09,28,20.90
2016,08,14,09,29,20.90
2016,08,14,09,30,21.00
2016,08,14,09,31,21.00
2016,08,14,09,32,21.00
2016,08,14,09,33,21.00
2016,08,14,09,34,20.90
2016,08,14,09,35,21.00
2016,08,14,09,36,21.10
2016,08,14,09,37,21.10
2016,08,14,09,38,21.20
2016,08,14,09,39,21.30
2016,08,14,09,40,21.30
2016,08,14,09,41,21.40
2016,08,14,09,42,21.40
2016,08,14,09,43,21.50
2016,08,14,09,44,21.50
2016,08,14,09,45,21.50
2016,08,14,09,46,21.50
2016,08,14,09,47,21.60
2016,08,14,09,48,21.60
2016,08,14,09,49,21.60
2016,08,14,09,50,21.60
2016,08,14,09,51,21.60
2016,08,14,09,52,21.60
2016,08,14,09,53,21.70
2016,08,14,09,54,21.70
2016,08,14,09,55,21.70
2016,08,14,09,56,21.70
2016,08,14,09,57,21.70
2016,08,14,09,58,21.70
2016,08,14,09,59,21.70
2016,08,14,10,00,21.70
2016,08,14,10,01,21.70
2016,08,14,10,02,21.80
2016,08,14,10,03,21.90
2016,08,14,10,04,21.90
2016,08,14,10,05,22.00
2016,08,14,10,06,22.10
2016,08,14,10,07,22.10
2016,08,14,10,08,22.10
2016,08,14,10,09,22.10
2016,08,14,10,10,22.10
2016,08,14,10,11,22.00
2016,08,14,10,12,22.10
2016,08,14,10,13,22.10
2016,08,14,10,14,22.10
2016,08,14,10,15,22.10
2016,08,14,10,16,22.20
2016,08,14,10,17,22.30
2016,08,14,10,18,22.40
2016,08,14,10,19,22.50
2016,08,14,10,20,22.60
2016,08,14,10,21,22.70
2016,08,14,10,22,22.70
2016,08,14,10,23,22.80
2016,08,14,10,24,22.80
2016,08,14,10,25,22.90
2016,08,14,10,26,22.90
2016,08,14,10,27,23.00
2016,08,14,10,28,23.10
2016,08,14,10,29,23.10
2016,08,14,10,30,23.10
2016,08,14,10,31,23.10
2016,08,14,10,32,23.10
2016,08,14,10,33,23.10
2016,08,14,10,34,23.10
2016,08,14,10,35,23.10
2016,08,14,10,36,23.10
2016,08,14,10,37,23.20
2016,08,14,10,38,23.20
2016,08,14,10,39,23.20
2016,08,14,10,40,23.20
2016,08,14,10,41,23.20
2016,08,14,10,42,23.10
2016,08,14,10,43,23.00
2016,08,14,10,44,22.90
2016,08,14,10,45,23.00
2016,08,14,10,46,23.10
2016,08,14,10,47,23.20
2016,08,14,10,48,23.10
2016,08,14,10,49,23.10
2016,08,14,10,50,23.00
2016,08,14,10,51,23.00
2016,08,14,10,52,23.00
2016,08,14,10,53,23.00
2016,08,14,10,54,22.90
2016,08,14,10,55,22.80
2016,08,14,10,56,22.70
2016,08,14,10,57,22.70
2016,08,14,10,58,22.70
2016,08,14,10,59,22.80
2016,08,14,11,00,22.90
2016,08,14,11,01,22.90
2016,08,14,11,02,22.90
2016,08,14,11,03,22.90
2016,08,14,11,04,22.80
2016,08,14,11,05,22.80
2016,08,14,11,06,22.80
2016,08,14,11,07,22.70
2016,08,14,11,08,22.80
2016,08,14,11,09,22.80
2016,08,14,11,10,22.80
2016,08,14,11,11,22.70
2016,08,14,11,12,22.70
2016,08,14,11,13,22.80
2016,08,14,11,14,22.90
2016,08,14,11,15,23.00
2016,08,14,11,16,22.90
2016,08,14,11,17,22.90
2016,08,14,11,18,22.90
2016,08,14,11,19,22.80
2016,08,14,11,20,22.80
2016,08,14,11,21,22.70
2016,08,14,11,22,22.70
2016,08,14,11,23,22.70
2016,08,14,11,24,22.70
2016,08,14,11,25,22.80
2016,08,14,11,26,22.80
2016,08,14,11,27,22.90
2016,08,14,11,28,23.00
2016,08,14,11,29,23.00
2016,08,14,11,30,23.10
2016,08,14,11,31,23.00
2016,08,14,11,32,23.00
2016,08,14,11,33,23.10
2016,08,14,11,34,23.20
2016,08,14,11,35,23.20
2016,08,14,11,36,23.20
2016,08,14,11,37,23.20
2016,08,14,11,38,23.30
2016,08,14,11,39,23.40
2016,08,14,11,40,23.50
2016,08,14,11,41,23.60
2016,08,14,11,42,23.70
2016,08,14,11,43,23.60
2016,08,14,11,44,23.50
2016,08,14,11,45,23.50
2016,08,14,11,46,23.60
2016,08,14,11,47,23.70
2016,08,14,11,48,23.70
2016,08,14,11,49,23.60
2016,08,14,11,50,23.60
2016,08,14,11,51,23.70
2016,08,14,11,52,23.80
2016,08,14,11,53,23.90
2016,08,14,11,54,23.90
2016,08,14,11,55,23.90
2016,08,14,11,56,24.00
2016,08,14,11,57,24.00
2016,08,14,11,58,24.10
2016,08,14,11,59,24.10
2016,08,14,12,00,24.10
2016,08,14,12,01,24.00
2016,08,14,12,02,23.90
2016,08,14,12,03,23.80
2016,08,14,12,04,23.70
2016,08,14,12,05,23.70
2016,08,14,12,06,23.70
2016,08,14,12,07,23.70
2016,08,14,12,08,23.80
2016,08,14,12,09,23.90
2016,08,14,12,10,24.00
2016,08,14,12,11,23.90
2016,08,14,12,12,23.80
2016,08,14,12,13,23.70
2016,08,14,12,14,23.70
2016,08,14,12,15,23.70
2016,08,14,12,16,23.80
2016,08,14,12,17,23.90
2016,08,14,12,18,23.90
2016,08,14,12,19,23.80
2016,08,14,12,20,23.80
2016,08,14,12,21,23.80
2016,08,14,12,22,23.70
2016,08,14,12,23,23.60
2016,08,14,12,24,23.60
2016,08,14,12,25,23.60
2016,08,14,12,26,23.80
2016,08,14,12,27,23.90
2016,08,14,12,28,24.10
2016,08,14,12,29,24.10
2016,08,14,12,30,24.00
2016,08,14,12,31,23.90
2016,08,14,12,32,24.00
2016,08,14,12,33,24.10
2016,08,14,12,34,24.20
2016,08,14,12,35,24.20
2016,08,14,12,36,24.10
2016,08,14,12,37,24.10
2016,08,14,12,38,24.00
2016,08,14,12,39,23.90
2016,08,14,12,40,23.90
2016,08,14,12,41,23.90
2016,08,14,12,42,23.90
2016,08,14,12,43,23.90
2016,08,14,12,44,23.90
2016,08,14,12,45,23.90
2016,08,14,12,46,23.90
2016,08,14,12,47,23.90
2016,08,14,12,48,23.90
2016,08,14,12,49,24.00
2016,08,14,12,50,24.10
2016,08,14,12,51,24.30
2016,08,14,12,52,24.40
2016,08,14,12,53,24.60
2016,08,14,12,54,24.70
2016,08,14,12,55,24.60
2016,08,14,12,56,24.60
2016,08,14,12,57,24.50
2016,08,14,12,58,24.50
2016,08,14,12,59,24.50
2016,08,14,13,00,24.50
2016,08,14,13,01,24.50
2016,08,14,13,02,24.50
2016,08,14,13,03,24.50
2016,08,14,13,04,24.50
2016,08,14,13,05,24.40
2016,08,14,13,06,24.30
2016,08,14,13,07,24.20
2016,08,14,13,08,24.10
2016,08,14,13,09,24.10
2016,08,14,13,10,24.10
2016,08,14,13,11,24.20
2016,08,14,13,12,24.20
2016,08,14,13,13,24.30
2016,08,14,13,14,24.30
2016,08,14,13,15,24.40
2016,08,14,13,16,24.40
2016,08,14,13,17,24.40
2016,08,14,13,18,24.40
2016,08,14,13,19,24.50
2016,08,14,13,20,24.50
2016,08,14,13,21,24.60
2016,08,14,13,22,24.70
2016,08,14,13,23,24.80
2016,08,14,13,24,24.80
2016,08,14,13,25,24.90
2016,08,14,13,26,25.00
2016,08,14,13,27,25.00
2016,08,14,13,28,25.10
2016,08,14,13,29,25.00
2016,08,14,13,30,25.00
2016,08,14,13,31,25.10
2016,08,14,13,32,25.10
2016,08,14,13,33,25.10
2016,08,14,13,34,25.10
2016,08,14,13,35,25.10
2016,08,14,13,36,25.10
2016,08,14,13,37,25.10
2016,08,14,13,38,25.30
2016,08,14,13,39,25.30
2016,08,14,13,40,25.30
2016,08,14,13,41,25.20
2016,08,14,13,42,25.20
2016,08,14,13,43,25.20
2016,08,14,13,44,25.20
2016,08,14,13,45,25.30
2016,08,14,13,46,25.30
2016,08,14,13,47,25.40
2016,08,14,13,48,25.40
2016,08,14,13,49,25.40
2016,08,14,13,50,25.30
2016,08,14,13,51,25.20
2016,08,14,13,52,25.10
2016,08,14,13,53,25.10
2016,08,14,13,54,25.10
2016,08,14,13,55,25.20
2016,08,14,13,56,25.20
2016,08,14,13,57,25.20
2016,08,14,13,58,25.20
2016,08,14,13,59,25.20
2016,08,14,14,00,25.20
2016,08,14,14,01,25.30
2016,08,14,14,02,25.30
2016,08,14,14,03,25.40
2016,08,14,14,04,25.40
2016,08,14,14,05,25.40
2016,08,14,14,06,25.40
2016,08,14,14,07,25.30
2016,08,14,14,08,25.40
2016,08,14,14,09,25.50
2016,08,14,14,10,25.60
2016,08,14,14,11,25.60
2016,08,14,14,12,25.70
2016,08,14,14,13,25.70
2016,08,14,14,14,25.80
2016,08,14,14,15,25.80
2016,08,14,14,16,25.80
2016,08,14,14,17,25.80
2016,08,14,14,18,25.70
2016,08,14,14,19,25.70
2016,08,14,14,20,25.70
2016,08,14,14,21,25.80
2016,08,14,14,22,25.80
2016,08,14,14,23,25.80
2016,08,14,14,24,25.80
2016,08,14,14,25,25.80
2016,08,14,14,26,25.70
2016,08,14,14,27,25.80
2016,08,14,14,28,25.90
2016,08,14,14,29,26.00
2016,08,14,14,30,26.10
2016,08,14,14,31,26.20
2016,08,14,14,32,26.10
2016,08,14,14,33,26.00
2016,08,14,14,34,25.90
2016,08,14,14,35,25.90
2016,08,14,14,36,26.00
2016,08,14,14,37,26.00
2016,08,14,14,38,25.90
2016,08,14,14,39,25.80
2016,08,14,14,40,25.90
2016,08,14,14,41,26.00
2016,08,14,14,42,26.10
2016,08,14,14,43,26.10
2016,08,14,14,44,26.00
2016,08,14,14,45,25.90
2016,08,14,14,46,25.80
2016,08,14,14,47,25.90
2016,08,14,14,48,25.90
2016,08,14,14,49,25.80
2016,08,14,14,50,25.70
2016,08,14,14,51,25.70
2016,08,14,14,52,25.70
2016,08,14,14,53,25.80
2016,08,14,14,54,25.80
2016,08,14,14,55,25.80
2016,08,14,14,56,25.80
2016,08,14,14,57,25.80
2016,08,14,14,58,25.70
2016,08,14,14,59,25.70
2016,08,14,15,00,25.70
2016,08,14,15,01,25.70
2016,08,14,15,02,25.80
2016,08,14,15,03,26.00
2016,08,14,15,04,26.20
2016,08,14,15,05,26.30
2016,08,14,15,06,26.40
2016,08,14,15,07,26.30
2016,08,14,15,08,26.20
2016,08,14,15,09,26.00
2016,08,14,15,10,26.00
2016,08,14,15,11,25.90
2016,08,14,15,12,26.00
2016,08,14,15,13,26.10
2016,08,14,15,14,26.20
2016,08,14,15,15,26.30
2016,08,14,15,16,26.30
2016,08,14,15,17,26.20
2016,08,14,15,18,26.10
2016,08,14,15,19,26.00
2016,08,14,15,20,26.00
2016,08,14,15,21,26.00
2016,08,14,15,22,26.00
2016,08,14,15,23,26.10
2016,08,14,15,24,26.10
2016,08,14,15,25,26.00
2016,08,14,15,26,26.00
2016,08,14,15,27,26.00
2016,08,14,15,28,26.10
2016,08,14,15,29,26.00
2016,08,14,15,30,25.90
2016,08,14,15,31,25.80
2016,08,14,15,32,25.80
2016,08,14,15,33,25.80
2016,08,14,15,34,25.80
2016,08,14,15,35,25.90
2016,08,14,15,36,26.00
2016,08,14,15,37,26.10
2016,08,14,15,38,26.10
2016,08,14,15,39,26.10
2016,08,14,15,40,26.10
2016,08,14,15,41,26.20
2016,08,14,15,42,26.40
2016,08,14,15,43,26.50
2016,08,14,15,44,26.60
2016,08,14,15,45,26.60
2016,08,14,15,46,26.70
2016,08,14,15,47,26.80
2016,08,14,15,48,26.90
2016,08,14,15,49,26.90
2016,08,14,15,50,26.80
2016,08,14,15,51,26.80
2016,08,14,15,52,26.70
2016,08,14,15,53,26.70
2016,08,14,15,54,26.70
2016,08,14,15,55,26.60
2016,08,14,15,56,26.60
2016,08,14,15,57,26.50
2016,08,14,15,58,26.50
2016,08,14,15,59,26.50
2016,08,14,16,00,26.40
2016,08,14,16,01,26.40
2016,08,14,16,02,26.40
2016,08,14,16,03,26.40
2016,08,14,16,04,26.40
2016,08,14,16,05,26.50
2016,08,14,16,06,26.60
2016,08,14,16,07,26.70
2016,08,14,16,08,26.80
2016,08,14,16,09,26.80
2016,08,14,16,10,26.90
2016,08,14,16,11,26.80
2016,08,14,16,12,26.70
2016,08,14,16,13,26.70
2016,08,14,16,14,26.60
2016,08,14,16,15,26.50
2016,08,14,16,16,26.50
2016,08,14,16,17,26.40
2016,08,14,16,18,26.40
2016,08,14,16,19,26.30
2016,08,14,16,20,26.40
2016,08,14,16,21,26.50
2016,08,14,16,22,26.50
2016,08,14,16,23,26.60
2016,08,14,16,24,26.60
2016,08,14,16,25,26.60
2016,08,14,16,26,26.50
2016,08,14,16,27,26.40
2016,08,14,16,28,26.50
2016,08,14,16,29,26.40
2016,08,14,16,30,26.40
2016,08,14,16,31,26.30
2016,08,14,16,32,26.30
2016,08,14,16,33,26.30
2016,08,14,16,34,26.30
2016,08,14,16,35,26.30
2016,08,14,16,36,26.20
2016,08,14,16,37,26.30
2016,08,14,16,38,26.30
2016,08,14,16,39,26.30
2016,08,14,16,40,26.40
2016,08,14,16,41,26.40
2016,08,14,16,42,26.40
2016,08,14,16,43,26.50
2016,08,14,16,44,26.50
2016,08,14,16,45,26.50
2016,08,14,16,46,26.60
2016,08,14,16,47,26.50
2016,08,14,16,48,26.50
2016,08,14,16,49,26.50
2016,08,14,16,50,26.40
2016,08,14,16,51,26.40
2016,08,14,16,52,26.30
2016,08,14,16,53,26.20
2016,08,14,16,54,26.20
2016,08,14,16,55,26.20
2016,08,14,16,56,26.20
2016,08,14,16,57,26.20
2016,08,14,16,58,26.10
2016,08,14,16,59,26.10
2016,08,14,17,00,26.20
2016,08,14,17,01,26.30
2016,08,14,17,02,26.30
2016,08,14,17,03,26.30
2016,08,14,17,04,26.30
2016,08,14,17,05,26.20
2016,08,14,17,06,26.10
2016,08,14,17,07,26.10
2016,08,14,17,08,26.10
2016,08,14,17,09,26.10
2016,08,14,17,10,26.10
2016,08,14,17,11,26.10
2016,08,14,17,12,26.10
2016,08,14,17,13,26.20
2016,08,14,17,14,26.20
2016,08,14,17,15,26.20
2016,08,14,17,16,26.20
2016,08,14,17,17,26.30
2016,08,14,17,18,26.30
2016,08,14,17,19,26.20